CW3847 La Orotava ES current weather conditions

sailwx.info

Wind from 153 at 9 knots gusting 11

Air temperature 33.9° C
Dewpoint 2.6° C

Last reported at 2014-Oct-22 12:36 UTC.
Time now 2014-Oct-22 13:54 UTC

Location: N 28°23' W 016°31'.
View on Google Maps.

See reports from other nearby stations

  
Tides and Currents Weather Stations Pressure Air Temp Water Temp Dewpoint Dewpoint Depression Visibility Wind Speed Wind Dir Waves Ship Positions
date/time (UTC)wind fromknots sea level pressurealtimeterstation pressurevisibilityair tempwater tempwave heightnotes
2014-Oct-22 12:36 153 9 gusting 11 33.9
2014-Oct-22 12:16 121 5 gusting 13 33.9
2014-Oct-22 12:06 093 8 gusting 11 33.9
2014-Oct-22 11:56 163 5 gusting 8 33.9
2014-Oct-22 11:46 135 6 gusting 6 33.3
2014-Oct-22 11:36 132 5 gusting 8 33.3
2014-Oct-22 11:26 152 2 gusting 4 32.8
2014-Oct-22 11:16 132 8 gusting 8 32.2
2014-Oct-22 11:06 183 6 gusting 8 32.2
2014-Oct-22 10:56 084 8 gusting 14 31.7
2014-Oct-22 10:46 161 11 gusting 16 31.1
2014-Oct-22 10:26 180 11 gusting 16 30.6
2014-Oct-22 10:16 205 6 gusting 17 30.6
2014-Oct-22 10:06 168 13 gusting 19 30.6
2014-Oct-22 09:36 163 14 gusting 17 29.4
2014-Oct-22 09:07 144 15 gusting 19 28.9
2014-Oct-22 08:46 119 19 gusting 19 28.3
2014-Oct-22 08:26 156 13 gusting 14 28.3
2014-Oct-22 08:16 157 17 gusting 19 28.3
2014-Oct-22 08:06 173 11 gusting 24 27.8
2014-Oct-22 07:56 161 11 gusting 17 27.8
2014-Oct-22 07:36 159 9 gusting 13 27.2
2014-Oct-22 07:06 178 5 gusting 12 27.2
2014-Oct-22 06:46 167 11 gusting 14 27.8
2014-Oct-22 06:36 146 8 gusting 17 27.8
2014-Oct-22 06:06 168 8 gusting 9 26.1
2014-Oct-22 05:56 180 3 gusting 6 27.8
2014-Oct-22 05:46 161 4 gusting 10 27.8
2014-Oct-22 05:36 150 7 gusting 8 27.8
2014-Oct-22 05:06 161 1 gusting 13 27.8
2014-Oct-22 04:56 157 4 gusting 13 27.8
2014-Oct-22 04:46 175 5 gusting 6 27.8
2014-Oct-22 04:26 134 13 gusting 14 28.3
2014-Oct-22 04:16 130 11 gusting 11 27.2
2014-Oct-22 04:06 190 8 gusting 13 27.2
2014-Oct-22 03:56 198 6 gusting 21 27.8
2014-Oct-22 03:46 178 7 gusting 19 27.8
2014-Oct-22 03:36 218 8 gusting 14 27.8
2014-Oct-22 03:16 156 14 gusting 24 28.3
2014-Oct-22 03:06 175 26 gusting 26 28.3
2014-Oct-22 02:56 176 15 gusting 16 26.7
2014-Oct-22 02:26 215 9 gusting 12 27.2
2014-Oct-22 02:06 152 13 gusting 13 27.2
2014-Oct-22 01:56 172 13 gusting 14 25.6
2014-Oct-22 01:46 227 6 gusting 13 25.0
2014-Oct-22 01:06 175 0 gusting 2 26.7
2014-Oct-22 00:56 142 1 gusting 2 26.1
2014-Oct-22 00:46 173 2 gusting 2 26.1
2014-Oct-22 00:36 163 1 gusting 2 26.7
2014-Oct-22 00:26 161 26.7
2014-Oct-22 00:16 084 0 gusting 1 27.2
2014-Oct-22 00:06 084 1 gusting 1 26.7
2014-Oct-21 23:46 036 2 gusting 2 27.2
2014-Oct-21 23:36 119 2 gusting 2 26.7
2014-Oct-21 23:26 175 1 gusting 2 26.1
2014-Oct-21 23:06 154 1 gusting 2 25.6
2014-Oct-21 22:46 163 3 gusting 4 25.0
2014-Oct-21 22:16 159 2 gusting 3 25.0
2014-Oct-21 21:56 155 2 gusting 3 26.1
2014-Oct-21 21:46 193 2 gusting 5 26.1
2014-Oct-21 21:36 177 2 gusting 6 25.6
2014-Oct-21 21:16 175 7 gusting 7 25.6
2014-Oct-21 21:06 193 4 gusting 4 25.0
2014-Oct-21 20:46 186 2 gusting 4 25.0
2014-Oct-21 20:36 148 2 gusting 4 25.0
2014-Oct-21 20:26 169 4 gusting 6 25.0
2014-Oct-21 20:16 146 4 gusting 6 25.6
2014-Oct-21 19:56 130 5 gusting 6 25.6
2014-Oct-21 19:36 151 3 gusting 6 25.0
2014-Oct-21 19:26 192 2 gusting 4 24.4
2014-Oct-21 19:16 177 2 gusting 4 23.9
2014-Oct-21 18:46 110 0 gusting 2 22.8
2014-Oct-21 18:06 148 1 gusting 2 24.4
2014-Oct-21 17:46 150 1 gusting 2 22.2
2014-Oct-21 17:16 318 2 gusting 2 23.9
2014-Oct-21 16:56 202 2 gusting 2 22.8
2014-Oct-21 16:26 068 0 gusting 1 23.9
2014-Oct-21 16:16 042 1 gusting 1 23.9
2014-Oct-21 15:46 360 4 gusting 4 22.8
2014-Oct-21 15:16 320 2 gusting 6 24.4
2014-Oct-21 14:16 115 1 gusting 3 22.8
2014-Oct-21 13:56 335 6 gusting 6 23.9
2014-Oct-21 13:36 293 5 gusting 8 27.2
2014-Oct-21 13:16 178 7 gusting 8 25.0
2014-Oct-21 13:06 190 2 gusting 3 23.9
2014-Oct-21 12:56 290 1 gusting 2 24.4
2014-Oct-21 12:46 295 2 gusting 7 25.0
2014-Oct-21 12:36 360 2 gusting 3 24.4
2014-Oct-21 12:26 346 3 gusting 3 24.4
2014-Oct-21 11:56 319 2 gusting 2 23.3
2014-Oct-21 11:46 291 1 gusting 2 23.3
2014-Oct-21 11:06 307 2 gusting 4 23.3
2014-Oct-21 10:56 205 23.3
2014-Oct-21 10:46 009 1 gusting 2 22.8
2014-Oct-21 10:36 360 22.2
2014-Oct-21 10:26 217 0 gusting 1 22.2
2014-Oct-21 09:56 279 1 gusting 2 20.6
2014-Oct-21 09:36 248 2 gusting 2 19.4
2014-Oct-21 09:26 252 1 gusting 2 19.4
2014-Oct-21 08:56 153 1 gusting 2 18.9
2014-Oct-21 08:36 225 0 gusting 1 18.9
2014-Oct-21 08:26 153 6 gusting 6 18.9
2014-Oct-21 07:56 192 0 gusting 2 18.3
2014-Oct-21 07:36 173 3 gusting 5 18.3
2014-Oct-21 07:26 188 1 gusting 3 17.8
2014-Oct-21 07:16 187 1 gusting 2 18.3
2014-Oct-21 07:06 163 4 gusting 4 17.8
2014-Oct-21 06:46 159 3 gusting 4 17.8
2014-Oct-21 06:26 160 2 gusting 4 17.8
2014-Oct-21 06:06 179 2 gusting 2 17.8
2014-Oct-21 05:56 173 2 gusting 3 17.8
2014-Oct-21 05:36 155 5 gusting 6 17.8
2014-Oct-21 05:26 186 2 gusting 5 17.8
2014-Oct-21 05:16 178 5 gusting 7 17.8
2014-Oct-21 05:06 116 2 gusting 4 17.8
2014-Oct-21 04:46 188 2 gusting 3 18.9
2014-Oct-21 04:36 162 4 gusting 4 18.9
2014-Oct-21 04:26 150 3 gusting 6 18.9
2014-Oct-21 04:16 150 3 gusting 3 18.9
2014-Oct-21 04:06 198 2 gusting 3 18.9
2014-Oct-21 03:56 157 2 gusting 2 18.9
2014-Oct-21 03:46 181 3 gusting 3 18.9
2014-Oct-21 03:36 165 1 gusting 3 18.3
2014-Oct-21 03:26 159 1 gusting 3 18.3
2014-Oct-21 03:06 189 2 gusting 4 18.3
2014-Oct-21 02:56 165 1 gusting 3 18.9
2014-Oct-21 02:46 166 2 gusting 3 18.9
2014-Oct-21 02:36 163 2 gusting 4 18.3
2014-Oct-21 02:26 182 2 gusting 4 18.3
2014-Oct-21 01:56 182 2 gusting 4 18.3
2014-Oct-21 01:26 175 4 gusting 4 18.3
2014-Oct-21 01:06 174 1 gusting 2 18.3
2014-Oct-21 00:56 184 2 gusting 3 18.3
2014-Oct-21 00:46 173 4 gusting 4 18.3
2014-Oct-21 00:36 169 1 gusting 3 18.3
2014-Oct-21 00:26 179 2 gusting 4 18.3
2014-Oct-21 00:16 174 3 gusting 3 18.3
2014-Oct-21 00:06 167 4 gusting 4 18.3
2014-Oct-20 23:56 176 2 gusting 3 18.3
2014-Oct-20 23:46 165 3 gusting 5 18.3
2014-Oct-20 23:36 173 2 gusting 2 18.3
2014-Oct-20 23:16 157 2 gusting 5 18.3
2014-Oct-20 22:36 189 1 gusting 3 18.9
2014-Oct-20 21:46 177 2 gusting 3 18.9
2014-Oct-20 21:26 194 1 gusting 2 18.9
2014-Oct-20 21:16 180 2 gusting 3 19.4
2014-Oct-20 20:57 193 0 gusting 1 19.4
2014-Oct-20 20:47 165 3 gusting 3 19.4
2014-Oct-20 20:36 199 3 gusting 4 19.4
2014-Oct-20 20:26 157 1 gusting 2 19.4
2014-Oct-20 20:16 192 1 gusting 4 19.4
2014-Oct-20 20:07 176 1 gusting 3 20.0
2014-Oct-20 19:56 067 0 gusting 1 20.0
2014-Oct-20 19:46 011 20.0
2014-Oct-20 19:26 011 0 gusting 1 20.6
2014-Oct-20 19:06 005 0 gusting 0 20.6
2014-Oct-20 18:46 347 2 gusting 3 20.6
2014-Oct-20 18:36 036 2 gusting 3 20.6
2014-Oct-20 18:06 345 1 gusting 1 21.1
2014-Oct-20 17:56 336 2 gusting 2 21.1
2014-Oct-20 17:46 005 0 gusting 1 21.1
2014-Oct-20 17:36 355 3 gusting 4 21.1
2014-Oct-20 17:26 324 6 gusting 6 21.1
2014-Oct-20 16:56 018 3 gusting 5 21.7
2014-Oct-20 16:36 346 2 gusting 3 21.7
2014-Oct-20 16:26 318 4 gusting 5 21.7
2014-Oct-20 16:06 327 2 gusting 3 22.2
2014-Oct-20 15:46 307 1 gusting 2 22.2
2014-Oct-20 15:36 333 3 gusting 6 22.2
2014-Oct-20 15:26 327 1 gusting 2 22.2
2014-Oct-20 15:16 317 2 gusting 2 22.8
2014-Oct-20 15:06 005 2 gusting 3 22.8
2014-Oct-20 14:56 005 2 gusting 3 22.8
2014-Oct-20 14:46 027 1 gusting 1 22.8
2014-Oct-20 14:36 242 2 gusting 5 22.8
2014-Oct-20 14:16 355 6 gusting 6 22.8
2014-Oct-20 13:56 047 22.8
2014-Oct-20 13:46 331 2 gusting 6 23.3
2014-Oct-20 13:16 322 4 gusting 6 22.8
2014-Oct-20 13:06 280 2 gusting 2 22.8